Time,TemperatureF,DewpointF,PressureIn,WindDirection,WindDirectionDegrees,WindSpeedMPH,WindSpeedGustMPH,Humidity,HourlyPrecipIn,Conditions,Clouds,dailyrainin,SoftwareType,DateUTC
2013-08-31 00:02:00,74.4,70.3,29.90,WSW,257,1.0,2.0,87,0.00,,,0.47,Wunderground v.1.15,2013-08-31 04:02:00,
2013-08-31 00:03:00,74.4,70.3,29.90,WSW,257,0.0,2.0,87,0.00,,,0.47,Wunderground v.1.15,2013-08-31 04:03:00,
2013-08-31 00:04:00,74.4,70.3,29.90,WSW,257,0.0,2.0,87,0.00,,,0.47,Wunderground v.1.15,2013-08-31 04:04:00,
2013-08-31 00:06:00,74.4,69.9,29.90,WSW,257,0.0,2.0,86,0.00,,,0.47,Wunderground v.1.15,2013-08-31 04:06:00,
2013-08-31 00:07:00,74.4,69.9,29.90,WSW,257,0.0,2.0,86,0.00,,,0.47,Wunderground v.1.15,2013-08-31 04:07:00,
2013-08-31 00:12:00,74.4,70.3,29.90,WSW,257,0.0,0.0,87,0.00,,,0.47,Wunderground v.1.15,2013-08-31 04:12:00,
2013-08-31 00:15:00,74.4,70.3,29.90,WSW,257,0.0,0.0,87,0.00,,,0.47,Wunderground v.1.15,2013-08-31 04:15:00,
2013-08-31 00:20:00,74.0,70.2,29.91,WSW,257,0.0,0.0,88,0.00,,,0.47,Wunderground v.1.15,2013-08-31 04:20:00,
2013-08-31 00:26:00,73.7,70.3,29.91,WSW,257,0.0,0.0,89,0.00,,,0.47,Wunderground v.1.15,2013-08-31 04:26:00,
2013-08-31 00:31:00,73.2,70.1,29.91,WSW,257,0.0,0.0,90,0.00,,,0.47,Wunderground v.1.15,2013-08-31 04:31:00,
2013-08-31 00:36:00,72.8,70.0,29.91,WSW,257,0.0,0.0,91,0.00,,,0.47,Wunderground v.1.15,2013-08-31 04:36:00,
2013-08-31 00:42:00,72.8,70.0,29.91,WSW,257,0.0,0.0,91,0.00,,,0.47,Wunderground v.1.15,2013-08-31 04:42:00,
2013-08-31 00:48:00,72.7,69.9,29.91,WSW,256,0.0,0.0,91,0.00,,,0.47,Wunderground v.1.15,2013-08-31 04:48:00,
2013-08-31 00:53:00,72.7,70.2,29.91,WSW,257,0.0,0.0,92,0.00,,,0.47,Wunderground v.1.15,2013-08-31 04:53:00,
2013-08-31 00:58:00,72.5,70.4,29.91,WSW,257,0.0,0.0,93,0.00,,,0.47,Wunderground v.1.15,2013-08-31 04:58:00,
2013-08-31 01:04:00,72.1,70.3,29.91,WSW,257,0.0,0.0,94,0.00,,,0.47,Wunderground v.1.15,2013-08-31 05:04:00,
2013-08-31 01:10:00,72.1,70.3,29.92,WSW,257,0.0,0.0,94,0.00,,,0.47,Wunderground v.1.15,2013-08-31 05:10:00,
2013-08-31 01:15:00,72.1,70.3,29.92,WSW,257,0.0,0.0,94,0.00,,,0.47,Wunderground v.1.15,2013-08-31 05:15:00,
2013-08-31 01:20:00,72.0,70.2,29.91,WSW,257,0.0,0.0,94,0.00,,,0.47,Wunderground v.1.15,2013-08-31 05:20:00,
2013-08-31 01:26:00,72.1,70.6,29.91,WSW,257,0.0,0.0,95,0.00,,,0.47,Wunderground v.1.15,2013-08-31 05:26:00,
2013-08-31 01:31:00,72.0,70.5,29.91,WSW,257,0.0,0.0,95,0.00,,,0.47,Wunderground v.1.15,2013-08-31 05:31:00,
2013-08-31 01:37:00,72.0,70.8,29.91,WSW,257,0.0,0.0,96,0.00,,,0.00,Wunderground v.1.15,2013-08-31 05:37:00,
2013-08-31 01:42:00,71.8,70.6,29.91,WSW,257,0.0,0.0,96,0.00,,,0.00,Wunderground v.1.15,2013-08-31 05:42:00,
2013-08-31 01:48:00,71.8,70.9,29.91,WSW,257,0.0,0.0,97,0.00,,,0.00,Wunderground v.1.15,2013-08-31 05:48:00,
2013-08-31 01:53:00,71.6,70.7,29.90,WSW,257,0.0,0.0,97,0.00,,,0.00,Wunderground v.1.15,2013-08-31 05:53:00,
2013-08-31 01:59:00,71.6,70.7,29.90,WSW,257,0.0,0.0,97,0.00,,,0.00,Wunderground v.1.15,2013-08-31 05:59:00,
2013-08-31 02:04:00,71.6,70.7,29.90,WSW,257,0.0,0.0,97,0.00,,,0.00,Wunderground v.1.15,2013-08-31 06:04:00,
2013-08-31 02:10:00,71.6,70.7,29.90,WSW,257,0.0,0.0,97,0.00,,,0.00,Wunderground v.1.15,2013-08-31 06:10:00,
2013-08-31 02:15:00,71.5,70.6,29.90,WSW,257,0.0,0.0,97,0.00,,,0.00,Wunderground v.1.15,2013-08-31 06:15:00,
2013-08-31 02:21:00,71.5,70.6,29.90,WSW,257,0.0,4.0,97,0.00,,,0.00,Wunderground v.1.15,2013-08-31 06:21:00,
2013-08-31 02:27:00,71.5,70.6,29.90,WSW,257,1.0,4.0,97,0.00,,,0.00,Wunderground v.1.15,2013-08-31 06:27:00,
2013-08-31 02:33:00,71.5,70.6,29.90,WSW,257,1.0,3.0,97,0.00,,,0.00,Wunderground v.1.15,2013-08-31 06:33:00,
2013-08-31 02:38:00,71.5,70.6,29.90,WSW,257,0.0,3.0,97,0.00,,,0.00,Wunderground v.1.15,2013-08-31 06:38:00,
2013-08-31 02:44:00,71.5,70.6,29.90,WSW,257,0.0,0.0,97,0.00,,,0.00,Wunderground v.1.15,2013-08-31 06:44:00,
2013-08-31 02:49:00,71.5,70.6,29.90,WSW,257,0.0,0.0,97,0.00,,,0.00,Wunderground v.1.15,2013-08-31 06:49:00,
2013-08-31 02:55:00,71.3,70.4,29.92,WSW,257,0.0,0.0,97,0.00,,,0.00,Wunderground v.1.15,2013-08-31 06:55:00,
2013-08-31 03:00:00,71.3,70.4,29.92,WSW,257,0.0,0.0,97,0.00,,,0.00,Wunderground v.1.15,2013-08-31 07:00:00,
2013-08-31 03:06:00,71.5,70.3,29.92,WSW,256,0.0,0.0,96,0.00,,,0.00,Wunderground v.1.15,2013-08-31 07:06:00,
2013-08-31 03:11:00,71.5,70.3,29.92,WSW,257,0.0,0.0,96,0.00,,,0.00,Wunderground v.1.15,2013-08-31 07:11:00,
2013-08-31 03:17:00,71.3,70.1,29.92,WSW,257,0.0,1.0,96,0.00,,,0.00,Wunderground v.1.15,2013-08-31 07:17:00,
2013-08-31 03:22:00,71.3,70.1,29.92,WSW,256,0.0,0.0,96,0.00,,,0.00,Wunderground v.1.15,2013-08-31 07:22:00,
2013-08-31 03:28:00,71.5,70.3,29.92,WSW,257,0.0,0.0,96,0.00,,,0.00,Wunderground v.1.15,2013-08-31 07:28:00,
2013-08-31 03:33:00,71.5,70.3,29.92,WSW,257,0.0,0.0,96,0.00,,,0.00,Wunderground v.1.15,2013-08-31 07:33:00,
2013-08-31 03:39:00,71.3,70.1,29.92,WSW,257,0.0,0.0,96,0.00,,,0.00,Wunderground v.1.15,2013-08-31 07:39:00,
2013-08-31 03:44:00,71.5,70.3,29.92,WSW,257,0.0,0.0,96,0.00,,,0.00,Wunderground v.1.15,2013-08-31 07:44:00,
2013-08-31 03:50:00,71.5,70.3,29.91,WSW,257,0.0,0.0,96,0.00,,,0.00,Wunderground v.1.15,2013-08-31 07:50:00,
2013-08-31 03:55:00,71.6,70.4,29.91,WSW,257,0.0,0.0,96,0.00,,,0.00,Wunderground v.1.15,2013-08-31 07:55:00,
2013-08-31 04:01:00,71.6,70.4,29.91,WSW,257,0.0,0.0,96,0.00,,,0.00,Wunderground v.1.15,2013-08-31 08:01:00,
2013-08-31 04:06:00,71.6,70.4,29.91,WSW,257,0.0,0.0,96,0.00,,,0.00,Wunderground v.1.15,2013-08-31 08:06:00,
2013-08-31 04:12:00,71.6,70.4,29.91,WSW,257,0.0,0.0,96,0.00,,,0.00,Wunderground v.1.15,2013-08-31 08:12:00,
2013-08-31 04:17:00,71.6,70.4,29.91,WSW,257,0.0,0.0,96,0.00,,,0.00,Wunderground v.1.15,2013-08-31 08:17:00,
2013-08-31 04:23:00,71.5,70.6,29.91,WSW,257,0.0,0.0,97,0.00,,,0.00,Wunderground v.1.15,2013-08-31 08:23:00,
2013-08-31 04:29:00,71.5,70.6,29.91,WSW,257,0.0,0.0,97,0.00,,,0.00,Wunderground v.1.15,2013-08-31 08:29:00,
2013-08-31 04:34:00,71.5,70.6,29.91,WSW,258,0.0,0.0,97,0.00,,,0.00,Wunderground v.1.15,2013-08-31 08:34:00,
2013-08-31 04:40:00,71.6,70.7,29.90,WSW,257,0.0,0.0,97,0.00,,,0.00,Wunderground v.1.15,2013-08-31 08:40:00,
2013-08-31 04:45:00,71.6,70.4,29.90,WSW,257,0.0,0.0,96,0.00,,,0.00,Wunderground v.1.15,2013-08-31 08:45:00,
2013-08-31 04:51:00,71.6,70.7,29.91,WSW,257,0.0,0.0,97,0.00,,,0.00,Wunderground v.1.15,2013-08-31 08:51:00,
2013-08-31 04:56:00,71.6,70.7,29.91,WSW,257,0.0,0.0,97,0.00,,,0.00,Wunderground v.1.15,2013-08-31 08:56:00,
2013-08-31 05:02:00,71.5,70.6,29.91,WSW,257,0.0,0.0,97,0.00,,,0.00,Wunderground v.1.15,2013-08-31 09:02:00,
2013-08-31 05:07:00,71.6,70.7,29.91,WSW,257,0.0,0.0,97,0.00,,,0.00,Wunderground v.1.15,2013-08-31 09:07:00,
2013-08-31 05:13:00,71.6,70.7,29.91,WSW,257,0.0,0.0,97,0.00,,,0.00,Wunderground v.1.15,2013-08-31 09:13:00,
2013-08-31 05:18:00,71.6,70.7,29.91,WSW,257,0.0,3.0,97,0.00,,,0.00,Wunderground v.1.15,2013-08-31 09:18:00,
2013-08-31 05:24:00,71.6,70.7,29.91,WSW,257,0.0,0.0,97,0.00,,,0.00,Wunderground v.1.15,2013-08-31 09:24:00,
2013-08-31 05:29:00,71.6,70.7,29.91,WSW,257,0.0,0.0,97,0.00,,,0.00,Wunderground v.1.15,2013-08-31 09:29:00,
2013-08-31 05:34:00,71.6,70.7,29.91,WSW,258,0.0,0.0,97,0.00,,,0.00,Wunderground v.1.15,2013-08-31 09:34:00,
2013-08-31 05:40:00,71.6,70.7,29.91,WSW,257,0.0,0.0,97,0.00,,,0.00,Wunderground v.1.15,2013-08-31 09:40:00,
2013-08-31 05:45:00,71.6,70.7,29.91,WSW,257,0.0,0.0,97,0.00,,,0.00,Wunderground v.1.15,2013-08-31 09:45:00,
2013-08-31 05:51:00,71.6,70.7,29.92,WSW,257,0.0,0.0,97,0.00,,,0.00,Wunderground v.1.15,2013-08-31 09:51:00,
2013-08-31 05:56:00,71.6,70.7,29.92,WSW,257,0.0,0.0,97,0.00,,,0.00,Wunderground v.1.15,2013-08-31 09:56:00,
2013-08-31 06:02:00,71.5,70.6,29.92,WSW,257,0.0,0.0,97,0.00,,,0.00,Wunderground v.1.15,2013-08-31 10:02:00,
2013-08-31 06:07:00,71.5,70.6,29.92,WSW,257,0.0,0.0,97,0.00,,,0.00,Wunderground v.1.15,2013-08-31 10:07:00,
2013-08-31 06:13:00,71.3,70.4,29.92,WSW,258,1.0,3.0,97,0.00,,,0.00,Wunderground v.1.15,2013-08-31 10:13:00,
2013-08-31 06:19:00,71.5,70.6,29.92,WSW,257,1.0,3.0,97,0.00,,,0.00,Wunderground v.1.15,2013-08-31 10:19:00,
2013-08-31 06:25:00,71.5,70.6,29.93,WSW,257,0.0,2.0,97,0.00,,,0.00,Wunderground v.1.15,2013-08-31 10:25:00,
2013-08-31 06:31:00,71.5,70.6,29.93,WSW,257,1.0,2.0,97,0.00,,,0.00,Wunderground v.1.15,2013-08-31 10:31:00,
2013-08-31 06:36:00,71.5,70.6,29.93,WSW,257,2.0,4.0,97,0.00,,,0.00,Wunderground v.1.15,2013-08-31 10:36:00,
2013-08-31 06:41:00,71.5,70.3,29.93,WSW,258,1.0,3.0,96,0.00,,,0.00,Wunderground v.1.15,2013-08-31 10:41:00,
2013-08-31 06:47:00,71.3,69.2,29.93,WSW,240,1.0,5.0,93,2.38,,,0.04,Wunderground v.1.15,2013-08-31 10:47:00,
2013-08-31 06:52:00,70.8,68.7,29.92,WSW,248,3.0,4.0,93,0.98,,,0.15,Wunderground v.1.15,2013-08-31 10:52:00,
2013-08-31 06:58:00,70.1,68.6,29.92,WSW,248,3.0,4.0,95,0.15,,,0.17,Wunderground v.1.15,2013-08-31 10:58:00,
2013-08-31 07:03:00,69.9,68.4,29.92,WSW,248,2.0,2.0,95,0.07,,,0.17,Wunderground v.1.15,2013-08-31 11:03:00,
2013-08-31 07:09:00,69.8,68.6,29.91,WSW,239,0.0,3.0,96,0.04,,,0.17,Wunderground v.1.15,2013-08-31 11:09:00,
2013-08-31 07:14:00,69.8,68.6,29.91,WSW,239,0.0,1.0,96,0.00,,,0.17,Wunderground v.1.15,2013-08-31 11:14:00,
2013-08-31 07:20:00,69.8,68.6,29.92,WSW,239,0.0,0.0,96,0.00,,,0.17,Wunderground v.1.15,2013-08-31 11:20:00,
2013-08-31 07:25:00,69.8,68.9,29.92,WSW,239,0.0,0.0,97,0.00,,,0.17,Wunderground v.1.15,2013-08-31 11:25:00,
2013-08-31 07:31:00,69.6,68.7,29.92,WSW,239,0.0,0.0,97,0.00,,,0.17,Wunderground v.1.15,2013-08-31 11:31:00,
2013-08-31 07:36:00,69.6,68.7,29.92,WSW,239,0.0,0.0,97,0.00,,,0.17,Wunderground v.1.15,2013-08-31 11:36:00,
2013-08-31 07:42:00,69.6,68.7,29.92,WSW,239,0.0,0.0,97,0.00,,,0.17,Wunderground v.1.15,2013-08-31 11:42:00,
2013-08-31 07:47:00,69.6,68.7,29.92,WSW,239,0.0,0.0,97,0.00,,,0.17,Wunderground v.1.15,2013-08-31 11:47:00,
2013-08-31 07:53:00,69.6,68.7,29.93,WSW,239,0.0,0.0,97,0.00,,,0.17,Wunderground v.1.15,2013-08-31 11:53:00,
2013-08-31 07:58:00,69.8,68.9,29.93,WSW,239,0.0,0.0,97,0.00,,,0.17,Wunderground v.1.15,2013-08-31 11:58:00,
2013-08-31 08:03:00,69.8,69.2,29.93,WSW,239,0.0,0.0,98,0.00,,,0.17,Wunderground v.1.15,2013-08-31 12:03:00,
2013-08-31 08:09:00,69.8,69.2,29.93,WSW,239,0.0,2.0,98,0.00,,,0.17,Wunderground v.1.15,2013-08-31 12:09:00,
2013-08-31 08:15:00,70.1,69.5,29.93,WSW,239,0.0,0.0,98,0.00,,,0.17,Wunderground v.1.15,2013-08-31 12:15:00,
2013-08-31 08:21:00,70.3,69.7,29.93,WSW,239,0.0,0.0,98,0.00,,,0.17,Wunderground v.1.15,2013-08-31 12:21:00,
2013-08-31 08:26:00,70.4,70.1,29.93,WSW,239,0.0,0.0,99,0.00,,,0.17,Wunderground v.1.15,2013-08-31 12:26:00,
2013-08-31 08:32:00,70.8,70.5,29.93,WSW,239,1.0,4.0,99,0.00,,,0.17,Wunderground v.1.15,2013-08-31 12:32:00,
2013-08-31 08:37:00,71.1,70.8,29.93,WSW,239,2.0,4.0,99,0.00,,,0.17,Wunderground v.1.15,2013-08-31 12:37:00,
2013-08-31 08:43:00,71.5,71.2,29.93,WSW,239,2.0,2.0,99,0.00,,,0.17,Wunderground v.1.15,2013-08-31 12:43:00,
2013-08-31 08:48:00,71.8,71.2,29.93,WSW,239,1.0,3.0,98,0.00,,,0.17,Wunderground v.1.15,2013-08-31 12:48:00,
2013-08-31 08:54:00,72.1,71.5,29.93,WSW,239,1.0,1.0,98,0.00,,,0.17,Wunderground v.1.15,2013-08-31 12:54:00,
2013-08-31 08:59:00,72.8,72.5,29.93,WSW,239,0.0,1.0,99,0.00,,,0.17,Wunderground v.1.15,2013-08-31 12:59:00,
2013-08-31 09:05:00,73.9,73.6,29.93,WSW,239,0.0,0.0,99,0.00,,,0.17,Wunderground v.1.15,2013-08-31 13:05:00,
2013-08-31 09:10:00,74.6,74.0,29.93,WSW,237,0.0,0.0,98,0.00,,,0.17,Wunderground v.1.15,2013-08-31 13:10:00,
2013-08-31 09:16:00,74.2,73.0,29.93,South,190,0.0,1.0,96,0.00,,,0.17,Wunderground v.1.15,2013-08-31 13:16:00,
2013-08-31 09:21:00,74.6,73.4,29.92,South,190,0.0,0.0,96,0.00,,,0.17,Wunderground v.1.15,2013-08-31 13:21:00,
2013-08-31 09:27:00,75.1,73.9,29.92,South,190,0.0,0.0,96,0.00,,,0.17,Wunderground v.1.15,2013-08-31 13:27:00,
2013-08-31 09:32:00,76.0,74.5,29.92,South,190,0.0,0.0,95,0.00,,,0.17,Wunderground v.1.15,2013-08-31 13:32:00,
2013-08-31 09:38:00,76.3,74.1,29.92,South,172,0.0,1.0,93,0.00,,,0.17,Wunderground v.1.15,2013-08-31 13:38:00,
2013-08-31 09:43:00,76.1,74.2,29.92,South,169,0.0,0.0,94,0.00,,,0.17,Wunderground v.1.15,2013-08-31 13:43:00,
2013-08-31 09:48:00,76.3,74.1,29.92,SSE,166,0.0,1.0,93,0.00,,,0.17,Wunderground v.1.15,2013-08-31 13:48:00,
2013-08-31 09:54:00,76.0,73.5,29.92,SSE,166,0.0,0.0,92,0.00,,,0.17,Wunderground v.1.15,2013-08-31 13:54:00,
2013-08-31 10:00:00,76.0,73.8,29.92,SSE,166,0.0,0.0,93,0.00,,,0.17,Wunderground v.1.15,2013-08-31 14:00:00,
2013-08-31 10:05:00,76.8,74.6,29.93,SSE,166,0.0,0.0,93,0.00,,,0.17,Wunderground v.1.15,2013-08-31 14:05:00,
2013-08-31 10:10:00,76.8,74.3,29.93,ESE,103,1.0,4.0,92,0.00,,,0.17,Wunderground v.1.15,2013-08-31 14:10:00,
2013-08-31 10:16:00,76.0,73.8,29.93,East,97,3.0,5.0,93,0.00,,,0.17,Wunderground v.1.15,2013-08-31 14:16:00,
2013-08-31 10:21:00,75.3,73.5,29.94,East,93,2.0,3.0,94,0.00,,,0.17,Wunderground v.1.15,2013-08-31 14:21:00,
2013-08-31 10:27:00,74.9,73.4,29.94,East,93,0.0,3.0,95,0.00,,,0.17,Wunderground v.1.15,2013-08-31 14:27:00,
2013-08-31 10:32:00,74.6,73.1,29.94,East,93,0.0,0.0,95,0.00,,,0.17,Wunderground v.1.15,2013-08-31 14:32:00,
2013-08-31 10:38:00,74.7,73.5,29.94,East,93,0.0,0.0,96,0.00,,,0.17,Wunderground v.1.15,2013-08-31 14:38:00,
2013-08-31 10:43:00,74.9,73.7,29.94,East,93,0.0,0.0,96,0.00,,,0.17,Wunderground v.1.15,2013-08-31 14:43:00,
2013-08-31 10:49:00,75.3,74.1,29.94,East,79,2.0,5.0,96,0.00,,,0.17,Wunderground v.1.15,2013-08-31 14:49:00,
2013-08-31 10:54:00,75.3,74.1,29.94,ENE,78,2.0,4.0,96,0.00,,,0.17,Wunderground v.1.15,2013-08-31 14:54:00,
2013-08-31 10:59:00,75.6,74.4,29.94,ENE,78,1.0,1.0,96,0.00,,,0.17,Wunderground v.1.15,2013-08-31 14:59:00,
2013-08-31 11:05:00,75.8,74.3,29.94,ENE,78,0.0,1.0,95,0.00,,,0.17,Wunderground v.1.15,2013-08-31 15:05:00,
2013-08-31 11:10:00,76.0,74.1,29.94,ENE,78,1.0,3.0,94,0.00,,,0.17,Wunderground v.1.15,2013-08-31 15:10:00,
2013-08-31 11:16:00,76.1,74.2,29.94,ENE,77,2.0,6.0,94,0.00,,,0.17,Wunderground v.1.15,2013-08-31 15:16:00,
2013-08-31 11:21:00,76.3,74.1,29.94,ENE,74,2.0,3.0,93,0.00,,,0.17,Wunderground v.1.15,2013-08-31 15:21:00,
2013-08-31 11:27:00,76.3,74.4,29.94,East,79,2.0,6.0,94,0.00,,,0.17,Wunderground v.1.15,2013-08-31 15:27:00,
2013-08-31 11:32:00,76.7,74.5,29.94,ENE,77,1.0,1.0,93,0.00,,,0.17,Wunderground v.1.15,2013-08-31 15:32:00,
2013-08-31 11:37:00,76.7,74.2,29.94,East,90,1.0,5.0,92,0.00,,,0.17,Wunderground v.1.15,2013-08-31 15:37:00,
2013-08-31 11:43:00,77.0,74.5,29.94,ENE,72,3.0,3.0,92,0.00,,,0.17,Wunderground v.1.15,2013-08-31 15:43:00,
2013-08-31 11:49:00,77.9,75.1,29.94,ENE,72,2.0,4.0,91,0.00,,,0.17,Wunderground v.1.15,2013-08-31 15:49:00,
2013-08-31 11:55:00,78.1,74.3,29.94,East,82,2.0,4.0,88,0.00,,,0.17,Wunderground v.1.15,2013-08-31 15:55:00,
2013-08-31 12:01:00,78.6,74.7,29.94,East,86,3.0,4.0,88,0.00,,,0.17,Wunderground v.1.15,2013-08-31 16:01:00,
2013-08-31 12:06:00,79.0,75.1,29.93,NE,54,3.0,8.0,88,0.00,,,0.17,Wunderground v.1.15,2013-08-31 16:06:00,
2013-08-31 12:11:00,79.4,75.2,29.93,ENE,76,2.0,3.0,87,0.00,,,0.17,Wunderground v.1.15,2013-08-31 16:11:00,
2013-08-31 12:17:00,79.4,74.8,29.93,ENE,60,2.0,6.0,86,0.00,,,0.17,Wunderground v.1.15,2013-08-31 16:17:00,
2013-08-31 12:22:00,79.6,75.4,29.93,ENE,71,3.0,6.0,87,0.00,,,0.17,Wunderground v.1.15,2013-08-31 16:22:00,
2013-08-31 12:28:00,79.8,74.9,29.93,ENE,65,4.0,6.0,85,0.00,,,0.17,Wunderground v.1.15,2013-08-31 16:28:00,
2013-08-31 12:34:00,79.9,75.0,29.93,NNE,32,5.0,7.0,85,0.00,,,0.17,Wunderground v.1.15,2013-08-31 16:34:00,
2013-08-31 12:40:00,79.2,74.3,29.92,NE,44,5.0,5.0,85,0.00,,,0.17,Wunderground v.1.15,2013-08-31 16:40:00,
2013-08-31 12:46:00,79.6,75.0,29.92,ENE,76,5.0,7.0,86,0.00,,,0.17,Wunderground v.1.15,2013-08-31 16:46:00,
2013-08-31 12:51:00,79.6,75.4,29.92,NE,46,5.0,5.0,87,0.00,,,0.17,Wunderground v.1.15,2013-08-31 16:51:00,
2013-08-31 12:56:00,79.4,74.1,29.92,ENE,74,4.0,6.0,84,0.00,,,0.17,Wunderground v.1.15,2013-08-31 16:56:00,
2013-08-31 13:02:00,79.6,74.7,29.92,East,80,3.0,4.0,85,0.00,,,0.17,Wunderground v.1.15,2013-08-31 17:02:00,
2013-08-31 13:07:00,80.1,74.5,29.92,ENE,73,2.0,6.0,83,0.00,,,0.17,Wunderground v.1.15,2013-08-31 17:07:00,
2013-08-31 13:13:00,80.7,75.1,29.92,ENE,70,2.0,4.0,83,0.00,,,0.17,Wunderground v.1.15,2013-08-31 17:13:00,
2013-08-31 13:18:00,80.5,74.5,29.92,NE,35,2.0,5.0,82,0.00,,,0.17,Wunderground v.1.15,2013-08-31 17:18:00,
2013-08-31 13:24:00,79.9,75.0,29.92,ENE,75,3.0,5.0,85,0.00,,,0.17,Wunderground v.1.15,2013-08-31 17:24:00,
2013-08-31 13:29:00,79.6,74.0,29.92,ENE,61,3.0,6.0,83,0.00,,,0.17,Wunderground v.1.15,2013-08-31 17:29:00,
2013-08-31 13:35:00,79.2,73.9,29.92,NE,54,3.0,4.0,84,0.00,,,0.17,Wunderground v.1.15,2013-08-31 17:35:00,
2013-08-31 13:41:00,78.8,73.6,29.92,NE,54,1.0,1.0,84,0.00,,,0.17,Wunderground v.1.15,2013-08-31 17:41:00,
2013-08-31 13:47:00,78.8,74.3,29.92,NE,54,0.0,1.0,86,0.00,,,0.17,Wunderground v.1.15,2013-08-31 17:47:00,
2013-08-31 13:53:00,79.0,74.8,29.91,NE,54,0.0,0.0,87,0.00,,,0.17,Wunderground v.1.15,2013-08-31 17:53:00,
2013-08-31 13:58:00,79.0,75.1,29.91,NE,54,0.0,0.0,88,0.00,,,0.17,Wunderground v.1.15,2013-08-31 17:58:00,
2013-08-31 14:04:00,79.0,75.1,29.91,NE,54,0.0,0.0,88,0.00,,,0.17,Wunderground v.1.15,2013-08-31 18:04:00,
2013-08-31 14:09:00,79.2,75.0,29.92,NE,54,0.0,4.0,87,0.00,,,0.17,Wunderground v.1.15,2013-08-31 18:09:00,
2013-08-31 14:14:00,79.6,75.0,29.92,ENE,63,2.0,5.0,86,0.00,,,0.17,Wunderground v.1.15,2013-08-31 18:14:00,
2013-08-31 14:20:00,79.4,73.4,29.91,ENE,61,2.0,2.0,82,0.00,,,0.17,Wunderground v.1.15,2013-08-31 18:20:00,
2013-08-31 14:25:00,79.6,73.3,29.91,ENE,65,2.0,4.0,81,0.00,,,0.17,Wunderground v.1.15,2013-08-31 18:25:00,
2013-08-31 14:31:00,80.3,73.9,29.91,ENE,65,1.0,1.0,81,0.00,,,0.17,Wunderground v.1.15,2013-08-31 18:31:00,
2013-08-31 14:36:00,81.1,74.7,29.89,ENE,65,0.0,2.0,81,0.00,,,0.17,Wunderground v.1.15,2013-08-31 18:36:00,
2013-08-31 14:42:00,81.4,70.7,29.89,ENE,62,0.0,6.0,70,0.00,,,0.17,Wunderground v.1.15,2013-08-31 18:42:00,
2013-08-31 14:48:00,82.0,72.5,29.89,ENE,62,0.0,6.0,73,0.00,,,0.17,Wunderground v.1.15,2013-08-31 18:48:00,
2013-08-31 14:54:00,82.4,72.5,29.88,ENE,62,0.0,1.0,72,0.00,,,0.17,Wunderground v.1.15,2013-08-31 18:54:00,
2013-08-31 15:00:00,83.4,73.0,29.88,ENE,62,0.0,0.0,71,0.00,,,0.17,Wunderground v.1.15,2013-08-31 19:00:00,
2013-08-31 15:05:00,83.8,71.2,29.87,ENE,62,0.0,0.0,66,0.00,,,0.17,Wunderground v.1.15,2013-08-31 19:05:00,
2013-08-31 15:10:00,83.0,71.8,29.87,ENE,65,1.0,4.0,69,0.00,,,0.17,Wunderground v.1.15,2013-08-31 19:10:00,
2013-08-31 15:16:00,82.6,71.0,29.87,ENE,60,2.0,6.0,68,0.00,,,0.17,Wunderground v.1.15,2013-08-31 19:16:00,
2013-08-31 15:21:00,82.8,72.0,29.86,ENE,60,2.0,2.0,70,0.00,,,0.17,Wunderground v.1.15,2013-08-31 19:21:00,
2013-08-31 15:27:00,82.8,72.0,29.86,ENE,60,1.0,5.0,70,0.00,,,0.17,Wunderground v.1.15,2013-08-31 19:27:00,
2013-08-31 15:32:00,82.8,72.8,29.86,ENE,64,1.0,2.0,72,0.00,,,0.17,Wunderground v.1.15,2013-08-31 19:32:00,
2013-08-31 15:38:00,82.0,72.5,29.86,ENE,64,1.0,3.0,73,0.00,,,0.17,Wunderground v.1.15,2013-08-31 19:38:00,
2013-08-31 15:43:00,81.8,72.7,29.86,ENE,64,1.0,3.0,74,0.00,,,0.17,Wunderground v.1.15,2013-08-31 19:43:00,
2013-08-31 15:49:00,81.4,73.1,29.86,ENE,64,1.0,4.0,76,0.00,,,0.17,Wunderground v.1.15,2013-08-31 19:49:00,
2013-08-31 15:54:00,81.2,72.9,29.85,ENE,64,0.0,1.0,76,0.00,,,0.17,Wunderground v.1.15,2013-08-31 19:54:00,
2013-08-31 16:00:00,81.1,73.2,29.85,ENE,64,0.0,0.0,77,0.00,,,0.17,Wunderground v.1.15,2013-08-31 20:00:00,
2013-08-31 16:05:00,81.2,73.3,29.83,ENE,64,0.0,0.0,77,0.00,,,0.17,Wunderground v.1.15,2013-08-31 20:05:00,
2013-08-31 16:11:00,81.4,73.1,29.83,ENE,64,0.0,0.0,76,0.00,,,0.17,Wunderground v.1.15,2013-08-31 20:11:00,
2013-08-31 16:16:00,81.4,73.1,29.83,ENE,64,0.0,0.0,76,0.00,,,0.17,Wunderground v.1.15,2013-08-31 20:16:00,
2013-08-31 16:21:00,81.6,73.7,29.83,ENE,64,0.0,0.0,77,0.00,,,0.17,Wunderground v.1.15,2013-08-31 20:21:00,
2013-08-31 16:27:00,82.0,73.7,29.83,ENE,64,0.0,0.0,76,0.00,,,0.17,Wunderground v.1.15,2013-08-31 20:27:00,
2013-08-31 16:32:00,82.2,73.9,29.83,ENE,64,0.0,1.0,76,0.00,,,0.17,Wunderground v.1.15,2013-08-31 20:32:00,
2013-08-31 16:38:00,82.4,73.3,29.84,ENE,64,0.0,1.0,74,0.00,,,0.17,Wunderground v.1.15,2013-08-31 20:38:00,
2013-08-31 16:44:00,82.4,74.1,29.84,ENE,64,0.0,0.0,76,0.00,,,0.17,Wunderground v.1.15,2013-08-31 20:44:00,
2013-08-31 16:50:00,82.6,74.3,29.83,ENE,64,0.0,0.0,76,0.00,,,0.17,Wunderground v.1.15,2013-08-31 20:50:00,
2013-08-31 16:55:00,82.8,73.7,29.83,ENE,64,0.0,0.0,74,0.00,,,0.17,Wunderground v.1.15,2013-08-31 20:55:00,
2013-08-31 17:01:00,83.0,73.9,29.83,ENE,64,0.0,0.0,74,0.00,,,0.17,Wunderground v.1.15,2013-08-31 21:01:00,
2013-08-31 17:06:00,83.0,75.0,29.85,ENE,64,0.0,0.0,77,0.00,,,0.17,Wunderground v.1.15,2013-08-31 21:06:00,
2013-08-31 17:12:00,83.0,74.6,29.85,ENE,64,0.0,0.0,76,0.00,,,0.17,Wunderground v.1.15,2013-08-31 21:12:00,
2013-08-31 17:17:00,82.8,74.5,29.85,ENE,64,0.0,0.0,76,0.00,,,0.17,Wunderground v.1.15,2013-08-31 21:17:00,
2013-08-31 17:23:00,82.4,73.3,29.85,ENE,64,0.0,0.0,74,0.00,,,0.17,Wunderground v.1.15,2013-08-31 21:23:00,
2013-08-31 17:28:00,82.4,73.7,29.85,ENE,64,0.0,0.0,75,0.00,,,0.17,Wunderground v.1.15,2013-08-31 21:28:00,
2013-08-31 17:34:00,82.2,74.7,29.85,ENE,64,0.0,0.0,78,0.00,,,0.17,Wunderground v.1.15,2013-08-31 21:34:00,
2013-08-31 17:39:00,82.0,74.1,29.85,ENE,64,0.0,0.0,77,0.00,,,0.17,Wunderground v.1.15,2013-08-31 21:39:00,
2013-08-31 17:44:00,81.8,73.5,29.85,ENE,64,0.0,0.0,76,0.00,,,0.17,Wunderground v.1.15,2013-08-31 21:44:00,
2013-08-31 17:50:00,81.6,74.5,29.83,ENE,64,0.0,0.0,79,0.00,,,0.17,Wunderground v.1.15,2013-08-31 21:50:00,
2013-08-31 17:55:00,81.6,74.1,29.83,ENE,64,0.0,0.0,78,0.00,,,0.17,Wunderground v.1.15,2013-08-31 21:55:00,
2013-08-31 18:01:00,81.8,73.1,29.83,ENE,64,0.0,0.0,75,0.00,,,0.17,Wunderground v.1.15,2013-08-31 22:01:00,
2013-08-31 18:06:00,82.2,74.7,29.83,ENE,64,0.0,0.0,78,0.00,,,0.17,Wunderground v.1.15,2013-08-31 22:06:00,
2013-08-31 18:12:00,82.6,74.7,29.83,ENE,64,0.0,0.0,77,0.00,,,0.17,Wunderground v.1.15,2013-08-31 22:12:00,
2013-08-31 18:17:00,82.6,74.3,29.83,ENE,64,0.0,0.0,76,0.00,,,0.17,Wunderground v.1.15,2013-08-31 22:17:00,
2013-08-31 18:23:00,82.8,74.5,29.83,ENE,64,0.0,0.0,76,0.00,,,0.17,Wunderground v.1.15,2013-08-31 22:23:00,
2013-08-31 18:28:00,83.0,74.6,29.83,ENE,64,0.0,0.0,76,0.00,,,0.17,Wunderground v.1.15,2013-08-31 22:28:00,
2013-08-31 18:34:00,83.0,74.6,29.83,ENE,64,0.0,0.0,76,0.00,,,0.17,Wunderground v.1.15,2013-08-31 22:34:00,
2013-08-31 18:39:00,83.0,75.0,29.82,ENE,64,0.0,0.0,77,0.00,,,0.17,Wunderground v.1.15,2013-08-31 22:39:00,
2013-08-31 18:45:00,82.4,75.2,29.82,ENE,64,0.0,0.0,79,0.00,,,0.17,Wunderground v.1.15,2013-08-31 22:45:00,
2013-08-31 18:50:00,82.0,75.2,29.82,ENE,64,0.0,0.0,80,0.00,,,0.17,Wunderground v.1.15,2013-08-31 22:50:00,
2013-08-31 18:56:00,81.8,74.6,29.82,ENE,64,0.0,0.0,79,0.00,,,0.17,Wunderground v.1.15,2013-08-31 22:56:00,
2013-08-31 19:01:00,81.6,74.5,29.82,ENE,64,0.0,0.0,79,0.00,,,0.17,Wunderground v.1.15,2013-08-31 23:01:00,
2013-08-31 19:07:00,81.4,75.0,29.83,ENE,64,0.0,0.0,81,0.00,,,0.17,Wunderground v.1.15,2013-08-31 23:07:00,
2013-08-31 19:12:00,81.1,75.4,29.83,ENE,64,0.0,0.0,83,0.00,,,0.17,Wunderground v.1.15,2013-08-31 23:12:00,
2013-08-31 19:18:00,80.5,75.6,29.83,ENE,64,0.0,0.0,85,0.00,,,0.17,Wunderground v.1.15,2013-08-31 23:18:00,
2013-08-31 19:23:00,79.9,75.0,29.84,ENE,64,0.0,0.0,85,0.00,,,0.17,Wunderground v.1.15,2013-08-31 23:23:00,
2013-08-31 19:28:00,79.8,75.2,29.84,ENE,64,0.0,0.0,86,0.00,,,0.17,Wunderground v.1.15,2013-08-31 23:28:00,
2013-08-31 19:34:00,79.6,75.0,29.84,ENE,64,0.0,0.0,86,0.00,,,0.17,Wunderground v.1.15,2013-08-31 23:34:00,
2013-08-31 19:39:00,79.6,74.0,29.85,ENE,64,0.0,0.0,83,0.00,,,0.17,Wunderground v.1.15,2013-08-31 23:39:00,
2013-08-31 19:45:00,79.6,74.0,29.85,ENE,64,0.0,0.0,83,0.00,,,0.17,Wunderground v.1.15,2013-08-31 23:45:00,
2013-08-31 19:51:00,79.6,74.0,29.85,ENE,64,0.0,0.0,83,0.00,,,0.17,Wunderground v.1.15,2013-08-31 23:51:00,
2013-08-31 19:57:00,79.6,74.0,29.85,ENE,64,0.0,4.0,83,0.00,,,0.17,Wunderground v.1.15,2013-08-31 23:57:00,
2013-08-31 20:02:00,79.0,72.7,29.85,ENE,64,1.0,1.0,81,0.00,,,0.18,Wunderground v.1.15,2013-09-01 00:02:00,
2013-08-31 20:08:00,78.1,73.9,29.85,ENE,64,0.0,1.0,87,0.00,,,0.18,Wunderground v.1.15,2013-09-01 00:08:00,
2013-08-31 20:13:00,77.0,73.2,29.85,ENE,64,0.0,0.0,88,0.00,,,0.18,Wunderground v.1.15,2013-09-01 00:13:00,
2013-08-31 20:19:00,76.3,72.5,29.85,ENE,64,1.0,3.0,88,0.00,,,0.18,Wunderground v.1.15,2013-09-01 00:19:00,
2013-08-31 20:24:00,75.8,72.7,29.87,ENE,64,2.0,3.0,90,0.00,,,0.18,Wunderground v.1.15,2013-09-01 00:24:00,
2013-08-31 20:30:00,75.3,71.8,29.87,ENE,64,1.0,1.0,89,0.00,,,0.18,Wunderground v.1.15,2013-09-01 00:30:00,
2013-08-31 20:35:00,74.7,71.6,29.88,ENE,64,0.0,2.0,90,0.00,,,0.18,Wunderground v.1.15,2013-09-01 00:35:00,
2013-08-31 20:41:00,74.6,72.1,29.88,ENE,64,2.0,4.0,92,0.00,,,0.18,Wunderground v.1.15,2013-09-01 00:41:00,
2013-08-31 20:46:00,74.6,71.1,29.88,ENE,64,2.0,4.0,89,0.00,,,0.18,Wunderground v.1.15,2013-09-01 00:46:00,
2013-08-31 20:52:00,74.7,70.9,29.87,ENE,64,1.0,3.0,88,0.00,,,0.18,Wunderground v.1.15,2013-09-01 00:52:00,
2013-08-31 20:57:00,75.3,71.2,29.87,ENE,64,1.0,3.0,87,0.00,,,0.18,Wunderground v.1.15,2013-09-01 00:57:00,
2013-08-31 21:03:00,75.8,71.0,29.87,ENE,64,1.0,1.0,85,0.00,,,0.18,Wunderground v.1.15,2013-09-01 01:03:00,
2013-08-31 21:08:00,75.8,71.3,29.88,ENE,64,0.0,4.0,86,0.00,,,0.18,Wunderground v.1.15,2013-09-01 01:08:00,
2013-08-31 21:14:00,75.8,71.3,29.88,ENE,64,1.0,3.0,86,0.00,,,0.18,Wunderground v.1.15,2013-09-01 01:14:00,
2013-08-31 21:19:00,75.6,70.8,29.88,ENE,64,0.0,3.0,85,0.00,,,0.18,Wunderground v.1.15,2013-09-01 01:19:00,
2013-08-31 21:24:00,75.6,71.1,29.88,ENE,64,0.0,0.0,86,0.00,,,0.18,Wunderground v.1.15,2013-09-01 01:24:00,
2013-08-31 21:30:00,75.4,71.3,29.88,ENE,64,0.0,0.0,87,0.00,,,0.18,Wunderground v.1.15,2013-09-01 01:30:00,
2013-08-31 21:36:00,75.4,71.3,29.88,ENE,64,0.0,0.0,87,0.00,,,0.18,Wunderground v.1.15,2013-09-01 01:36:00,
2013-08-31 21:41:00,75.3,70.5,29.88,ENE,64,0.0,0.0,85,0.00,,,0.18,Wunderground v.1.15,2013-09-01 01:41:00,
2013-08-31 21:47:00,75.3,70.8,29.88,ENE,64,0.0,0.0,86,0.00,,,0.18,Wunderground v.1.15,2013-09-01 01:47:00,
2013-08-31 21:52:00,75.1,69.9,29.87,ENE,64,0.0,1.0,84,0.00,,,0.18,Wunderground v.1.15,2013-09-01 01:52:00,
2013-08-31 21:58:00,75.1,69.9,29.87,ENE,64,0.0,1.0,84,0.00,,,0.18,Wunderground v.1.15,2013-09-01 01:58:00,
2013-08-31 22:03:00,75.1,71.0,29.87,ENE,64,0.0,0.0,87,0.00,,,0.18,Wunderground v.1.15,2013-09-01 02:03:00,
2013-08-31 22:09:00,74.9,71.1,29.87,ENE,64,0.0,1.0,88,0.00,,,0.18,Wunderground v.1.15,2013-09-01 02:09:00,
2013-08-31 22:14:00,74.6,70.8,29.87,ENE,64,0.0,0.0,88,0.00,,,0.18,Wunderground v.1.15,2013-09-01 02:14:00,
2013-08-31 22:20:00,74.4,70.6,29.88,ENE,64,0.0,0.0,88,0.00,,,0.18,Wunderground v.1.15,2013-09-01 02:20:00,
2013-08-31 22:25:00,74.2,70.4,29.88,ENE,64,0.0,0.0,88,0.00,,,0.18,Wunderground v.1.15,2013-09-01 02:25:00,
2013-08-31 22:31:00,74.2,70.4,29.88,ENE,64,0.0,0.0,88,0.00,,,0.18,Wunderground v.1.15,2013-09-01 02:31:00,
2013-08-31 22:36:00,74.2,71.1,29.88,ENE,64,0.0,0.0,90,0.00,,,0.18,Wunderground v.1.15,2013-09-01 02:36:00,
2013-08-31 22:42:00,74.0,71.2,29.88,ENE,64,0.0,0.0,91,0.00,,,0.18,Wunderground v.1.15,2013-09-01 02:42:00,
2013-08-31 22:47:00,74.0,71.2,29.88,ENE,64,0.0,0.0,91,0.00,,,0.18,Wunderground v.1.15,2013-09-01 02:47:00,
2013-08-31 22:53:00,74.2,71.7,29.88,ENE,64,0.0,1.0,92,0.00,,,0.18,Wunderground v.1.15,2013-09-01 02:53:00,
2013-08-31 22:58:00,74.2,71.7,29.88,ENE,64,0.0,1.0,92,0.00,,,0.18,Wunderground v.1.15,2013-09-01 02:58:00,
2013-08-31 23:03:00,74.2,71.4,29.88,ENE,64,0.0,0.0,91,0.00,,,0.18,Wunderground v.1.15,2013-09-01 03:03:00,
2013-08-31 23:09:00,74.4,71.6,29.89,ENE,64,0.0,2.0,91,0.00,,,0.18,Wunderground v.1.15,2013-09-01 03:09:00,
2013-08-31 23:14:00,74.2,71.4,29.89,ENE,64,1.0,3.0,91,0.00,,,0.18,Wunderground v.1.15,2013-09-01 03:14:00,
2013-08-31 23:20:00,74.2,71.1,29.88,ENE,64,1.0,1.0,90,0.00,,,0.18,Wunderground v.1.15,2013-09-01 03:20:00,
2013-08-31 23:25:00,74.4,71.3,29.88,ENE,64,0.0,1.0,90,0.00,,,0.18,Wunderground v.1.15,2013-09-01 03:25:00,
2013-08-31 23:31:00,74.2,71.4,29.88,ENE,64,0.0,0.0,91,0.00,,,0.18,Wunderground v.1.15,2013-09-01 03:31:00,
2013-08-31 23:36:00,74.2,70.7,29.88,ENE,64,0.0,0.0,89,0.00,,,0.18,Wunderground v.1.15,2013-09-01 03:36:00,
2013-08-31 23:42:00,74.4,70.9,29.88,ENE,64,0.0,0.0,89,0.00,,,0.18,Wunderground v.1.15,2013-09-01 03:42:00,
2013-08-31 23:47:00,74.4,70.9,29.88,ENE,64,0.0,0.0,89,0.00,,,0.18,Wunderground v.1.15,2013-09-01 03:47:00,
2013-08-31 23:53:00,73.9,70.5,29.88,ENE,66,1.0,6.0,89,0.00,,,0.18,Wunderground v.1.15,2013-09-01 03:53:00,
2013-08-31 23:59:00,72.8,70.7,29.88,ENE,66,2.0,6.0,93,0.00,,,0.18,Wunderground v.1.15,2013-09-01 03:59:00,